Location: La Bitarelle
(45.2217°N, 2.0048°E)
Time: 07:48:42
(UTC+00:00)

Daily predictions for brighter satellites

Satellite Brightness Start Highest point End
(mag) Time Altitude Azimuth Time Altitude Azimuth Time Altitude Azimuth
SJ-6B 3.8 18:52:52 10° SE 18:56:30 31° ENE 19:00:09 10° N
STARLINK-60 3.7 18:54:30 10° SSW 18:57:31 35° SE 19:00:33 10° ENE
ATLAS 5 CENTAUR R/B 2.7 18:55:10 10° SSE 18:58:11 20° ESE 19:01:25 10° ENE
Cosmos 1606 Rocket 4.3 18:54:21 10° SSE 18:58:18 33° E 19:02:19 10° NNE
Cosmos 2074 Rocket 4.2 18:53:14 10° N 18:59:24 54° ENE 19:05:32 10° SSE
ADEOS Rocket 3.7 18:56:05 10° N 19:02:23 62° WNW 19:08:04 10° SSW
Meteor 1-16 Rocket 4.4 18:57:34 10° SSE 19:02:45 48° E 19:08:05 10° NNE
Cosmos 1818 3.6 18:57:35 10° SSW 19:02:56 66° ESE 19:08:21 10° NE
Meteor 2-15 Rocket 4.5 18:58:32 10° S 19:04:36 89° E 19:10:43 10° N
SL-8 R/B 4.4 19:00:52 10° WNW 19:05:28 49° SSW 19:10:04 10° SE
Abrixas rocket 2.9 19:05:35 10° WNW 19:08:25 42° N 19:11:16 10° ENE
ISS -1.3 19:06:32 10° W 19:08:55 18° SW 19:11:18 10° S
Cosmos 1943 Rocket 3.2 19:06:26 10° NW 19:11:46 48° WSW 19:17:06 10° S
NOSS 3-4 (A) 4.1 19:06:20 10° NNW 19:13:10 58° NE 19:20:34 11° SE
NOSS 3-4 (C) 4.1 19:06:27 10° NNW 19:13:17 57° NE 19:20:38 11° SE
Meteor 1-21 Rocket 4.3 19:07:51 10° NNW 19:13:25 84° W 19:18:58 10° S
FALCON 9 DEB 4.3 19:14:41 10° S 19:17:33 24° SE 19:20:16 11° E
SL-4 R/B 1.5 19:14:48 10° WSW 19:18:13 89° NNW 19:21:39 10° ENE
Cosmos 2369 Rocket 3.0 19:15:52 10° NW 19:21:25 54° WSW 19:26:53 10° S
NOSS 3-3 (A) 4.4 19:15:42 10° SW 19:21:31 65° NW 19:28:10 10° NE
NOSS 3-3 (C) 4.4 19:15:46 10° SW 19:21:37 66° NW 19:28:16 10° NE
MOS 1 4.3 19:16:23 10° SSE 19:22:01 75° ENE 19:27:42 10° NNW
Cosmos 1340 Rocket 3.7 19:19:09 10° SSE 19:22:40 29° E 19:26:09 10° NNE
MOS 1 Rocket 4.4 19:18:52 10° NNE 19:23:35 30° E 19:28:17 10° SSE
STARLINK-67 3.5 19:23:13 10° NW 19:25:36 33° NNE 19:27:10 17° E
H-2A R/B 2.1 19:20:32 10° SSE 19:25:45 89° WSW 19:30:52 10° NNW
CZ-2C R/B 4.2 19:21:38 10° NNE 19:26:05 40° E 19:30:24 10° SSE
Cosmos 1703 3.4 19:22:11 10° N 19:26:08 57° E 19:30:01 10° SSE
Cosmos 1328 3.9 19:22:49 10° N 19:26:46 56° E 19:30:42 10° SSE
CZ-2C R/B 2.9 19:23:38 10° SSE 19:28:32 88° ENE 19:33:19 10° NNW
Cosmos 1437 3.2 19:29:08 10° NNW 19:32:07 57° W 19:35:04 10° S
STARLINK-52 3.7 19:33:11 10° SSW 19:36:04 31° SE 19:37:28 21° E
Cosmos 1908 3.2 19:32:27 10° S 19:36:16 65° E 19:40:08 10° NNE
SL-08 RB Rocket 3.7 19:32:02 10° SSE 19:36:33 71° ENE 19:41:09 10° N
MONITOR-E 4.3 19:36:34 10° S 19:39:09 57° WSW 19:41:47 10° NNW
Resurs 1-3 3.9 19:37:16 15° SE 19:40:38 47° ENE 19:44:52 10° N
USA 234 3.9 19:37:59 10° ENE 19:43:33 29° SE 19:49:06 10° S
SeaSat 1 4.1 19:40:18 10° NNE 19:44:49 37° NW 19:49:18 10° WSW
ATLAS 2AS CENTAUR R/B 2.8 19:37:58 10° NW 19:45:38 87° NE 19:51:22 16° SE
STARLINK-1228 3.7 19:43:07 10° NW 19:45:54 38° NNE 19:47:06 25° ENE
Cosmos 1943 4.0 19:40:44 10° SW 19:46:17 57° WNW 19:51:55 10° NNE
Ariane Rocket 3.9 19:41:49 10° S 19:46:44 50° W 19:51:40 10° NNW
Cosmos 1953 4.2 19:44:18 10° SW 19:47:53 33° WNW 19:51:32 10° N
Cosmos 1140 Rocket 3.5 19:45:55 10° S 19:50:58 56° ESE 19:56:02 10° NNE
Cosmos 1726 3.7 19:47:56 10° SSW 19:51:26 38° WNW 19:54:57 10° N
Cosmos 1656 Rocket 4.2 19:49:33 10° NNW 19:55:07 60° WSW 20:00:34 10° S
Cosmos 2341 Rocket 4.3 19:49:15 10° N 19:55:29 51° ENE 19:59:56 19° SE
Cosmos 1190 Rocket 3.9 19:52:06 10° SSW 19:57:23 74° ESE 20:02:41 10° NNE
Cosmos 2058 Rocket 3.0 19:53:40 10° S 19:58:10 73° E 20:02:40 10° NNE
Spot 2 Rocket 4.4 19:56:54 24° ESE 19:58:49 31° ENE 20:03:15 10° N
Meteor 1-11 4.2 19:53:32 10° N 19:59:20 90° W 20:05:00 10° S
MetOp-A 4.1 19:55:37 12° SSE 20:00:37 86° ENE 20:06:01 10° NNW
DMSP B5D2-2 4.0 19:56:14 10° NNE 20:01:28 67° ESE 20:06:40 10° S
COSMOS 2455 3.0 19:55:50 10° NNW 20:01:49 61° NE 20:05:11 26° SE
CZ-2C R/B 2.6 19:57:00 10° NNE 20:02:06 57° E 20:07:13 10° S
Cosmos 614 Rocket 4.3 19:58:09 10° SSW 20:03:22 71° WNW 20:08:36 10° NNE
Cosmos 1726 Rocket 4.1 20:01:47 10° SSW 20:06:08 60° W 20:10:32 10° N
ARGOS 4.1 20:01:55 10° S 20:07:06 48° W 20:12:18 10° NNW
USA 186 4.2 20:06:46 10° SSW 20:09:29 23° W 20:12:08 10° NW
Cosmos 2218 Rocket 4.5 20:03:57 10° N 20:09:47 41° ENE 20:12:17 29° ESE
Resurs 01 Rocket 1.6 20:08:30 30° SSE 20:10:35 68° ENE 20:14:59 10° N
ERBS 4.1 20:08:49 10° NNW 20:11:33 22° NNE 20:12:22 20° NE
SL-24 R/B 4.2 20:09:09 10° N 20:13:11 64° WNW 20:16:52 10° SSW
BREEZE-M DEB (TANK) 2.7 20:10:32 10° W 20:14:24 40° NNW 20:15:10 30° NNE
STARLINK-1234 2.9 20:16:46 10° NW 20:19:47 66° NNE 20:19:47 66° NNE
STARLINK-1233 3.3 20:16:45 10° NW 20:19:50 51° NNE 20:19:56 51° NE
Cosmos 921 Rocket 2.9 20:16:01 10° NNW 20:20:13 85° WSW 20:21:45 38° SSE
STARLINK-1212 3.3 20:17:13 10° NW 20:20:17 51° NNE 20:20:21 51° NNE
STARLINK-1105 3.3 20:17:39 10° NW 20:20:45 52° NNE 20:20:48 52° NNE
STARLINK-1209 2.9 20:17:54 10° NW 20:20:51 70° NNE 20:20:51 70° NNE
STARLINK-1206 3.3 20:18:08 10° NW 20:21:12 52° NNE 20:21:13 52° NNE
STARLINK-1247 3.3 20:18:35 10° NW 20:21:39 52° NNE 20:21:39 52° NNE
STARLINK-1227 3.3 20:19:00 10° NW 20:22:05 53° NNE 20:22:05 53° NNE
STARLINK-1218 3.3 20:19:29 10° NW 20:22:31 53° NNE 20:22:31 53° NNE
Cosmos 962 Rocket 4.4 20:16:49 10° N 20:23:00 87° E 20:27:13 21° S
STARLINK-1226 3.3 20:19:56 10° NW 20:22:57 53° NNE 20:22:57 53° NNE
STARLINK-1254 3.3 20:20:21 10° NW 20:23:24 54° NNE 20:23:24 54° NNE
STARLINK-1215 3.3 20:20:50 10° NW 20:23:49 54° NNE 20:23:49 54° NNE
STARLINK-1231 3.3 20:21:16 10° NW 20:24:15 54° NNE 20:24:15 54° NNE
Cosmos 2181 Rocket 4.0 20:20:34 21° SSE 20:24:43 59° E 20:30:47 10° NNE
Cosmos 407 Rocket 4.1 20:20:03 10° SW 20:25:05 55° WNW 20:30:09 10° NNE
STARLINK-1232 3.3 20:22:12 10° NW 20:25:08 55° NNE 20:25:08 55° NNE
STARLINK-1217 3.3 20:22:38 10° NW 20:25:33 55° NNE 20:25:33 55° NNE
STARLINK-1208 3.3 20:23:03 10° NW 20:26:00 56° NNE 20:26:00 56° NNE
Cosmos 676 Rocket 3.9 20:20:52 10° SSW 20:26:09 79° ESE 20:31:26 10° NNE
SL-8 Rocket 4.0 20:20:01 10° N 20:26:18 64° E 20:29:12 33° SSE
BREEZE-M DEB (TANK) 3.0 20:21:38 10° WNW 20:26:24 66° SSW 20:26:31 65° SSW
STARLINK-1229 3.3 20:23:31 10° NW 20:26:25 55° N 20:26:25 55° N
STARLINK-1271 3.3 20:23:58 10° NW 20:26:52 56° N 20:26:52 56° N
STARLINK-1270 3.3 20:24:26 10° NW 20:27:17 55° N 20:27:17 55° N
ERS-1 Rocket 4.0 20:27:20 28° ENE 20:27:48 28° ENE 20:32:03 10° N
STARLINK-1154 3.3 20:24:53 10° NW 20:27:43 56° N 20:27:43 56° N
STARLINK-1197 3.3 20:25:47 10° NW 20:28:35 56° N 20:28:35 56° N
SPOT 3 Rocket 4.3 20:24:32 12° S 20:29:15 50° W 20:34:20 10° NNW
Cosmos 1812 Rocket 4.0 20:29:45 42° ENE 20:29:45 42° ENE 20:33:27 10° NNE
STARLINK-1189 3.3 20:26:14 10° NW 20:29:01 56° N 20:29:01 56° N
STARLINK-1198 3.4 20:26:41 10° NW 20:29:27 55° N 20:29:27 55° N
STARLINK-1188 3.4 20:27:08 10° NW 20:29:53 55° N 20:29:53 55° N
Cosmos 1461 3.5 20:25:55 10° NW 20:30:24 58° WSW 20:32:00 37° S
Cosmos 1980 Rocket 4.2 20:27:54 10° N 20:30:40 14° NE 20:32:34 12° ENE
STARLINK-1239 4.4 20:26:54 10° NW 20:30:52 42° NNE 20:31:48 36° NE
STARLINK-1235 3.2 20:27:45 10° NW 20:30:32 64° NNW 20:30:32 64° NNW
STARLINK-1187 3.3 20:28:11 10° NW 20:30:59 61° NNW 20:30:59 61° NNW
STARLINK-29 3.2 20:28:19 10° WSW 20:31:20 69° WNW 20:31:20 69° WNW
MINOTAUR IV R/B 4.5 20:27:27 10° SSW 20:31:56 89° ESE 20:36:28 10° NNE
STARLINK-1199 3.4 20:29:03 10° NW 20:31:48 56° NNW 20:31:48 56° NNW
STARLINK-1191 3.4 20:29:31 10° NW 20:32:15 56° NNW 20:32:15 56° NNW
Cosmos 1892 3.9 20:29:16 10° N 20:32:00 30° NE 20:32:00 30° NE
STARLINK-1210 3.4 20:29:58 10° NW 20:32:40 55° NNW 20:32:40 55° NNW
STARLINK-1221 3.5 20:30:26 10° NW 20:33:07 55° NNW 20:33:07 55° NNW
SPOT 5 4.1 20:34:13 22° NE 20:34:13 22° NE 20:37:07 10° NNE
STARLINK-60 4.3 20:30:45 10° W 20:33:51 39° NNW 20:34:55 29° NNE
STARLINK-1219 3.5 20:30:51 10° NW 20:33:32 55° NNW 20:33:32 55° NNW
STARLINK-1222 3.5 20:31:20 10° NW 20:33:58 54° NNW 20:33:58 54° NNW
STARLINK-1211 3.5 20:31:46 10° NW 20:34:24 54° NNW 20:34:24 54° NNW
GRACE-FO 1 4.5 20:35:03 80° E 20:35:03 80° E 20:38:47 10° N
STARLINK-1214 3.5 20:32:13 10° NW 20:34:50 54° NNW 20:34:50 54° NNW
GRACE-FO 2 4.5 20:35:27 81° E 20:35:27 81° E 20:39:10 10° N
STARLINK-1245 3.6 20:32:43 10° NW 20:35:16 52° NNW 20:35:16 52° NNW
STARLINK-1240 4.3 20:31:53 10° NW 20:35:53 44° NNE 20:36:36 39° NE
STARLINK-1238 3.6 20:33:07 10° NW 20:35:43 53° NNW 20:35:43 53° NNW
STARLINK-1205 3.6 20:34:04 10° NW 20:36:34 51° NNW 20:36:34 51° NNW
STARLINK-1204 3.7 20:34:30 10° NW 20:36:59 50° NNW 20:36:59 50° NNW
Cosmos 220 Rocket 4.1 20:33:47 10° NNW 20:38:04 57° ENE 20:38:14 57° ENE
Cosmos 2366 rocket 4.0 20:33:05 10° N 20:39:11 63° E 20:41:05 43° SE
STARLINK-1216 4.2 20:36:53 10° NW 20:40:54 46° NNE 20:41:24 43° NE
Terra 3.3 20:42:27 22° ENE 20:42:27 22° ENE 20:45:46 10° NNE
ATLAS 5 CENTAUR R/B 2.4 20:38:15 10° WSW 20:42:20 49° NW 20:46:56 10° NNE
Cosmos 1825 4.5 20:40:06 10° NNE 20:41:04 14° NE 20:41:04 14° NE
Abrixas rocket 3.5 20:41:14 10° WNW 20:43:05 35° WNW 20:43:05 35° WNW
Cosmos 1959 Rocket 4.4 20:39:19 10° N 20:45:40 73° E 20:47:43 44° SSE
STARLINK-1237 4.1 20:41:50 10° NW 20:45:53 48° NNE 20:46:09 47° NE
Cosmos 1954 Rocket 4.2 20:44:01 10° SSW 20:49:14 70° WNW 20:54:28 10° NNE
STARLINK-1202 4.1 20:46:50 10° NW 20:50:53 51° NNE 20:50:57 51° NNE
Cosmos 2151 4.5 20:47:26 10° NNE 20:49:51 25° NE 20:49:51 25° NE
Cosmos 2058 3.0 20:47:09 10° N 20:50:47 63° NNE 20:50:47 63° NNE
Cosmos 192 4.2 20:46:49 10° NNW 20:51:47 71° ENE 20:52:09 67° E
SPOT 1/Viking Rocket 3.6 20:52:37 57° E 20:53:05 60° ENE 20:58:14 10° N
Cosmos 1300 3.6 20:52:16 33° SW 20:53:31 46° WNW 20:57:13 10° N
RESURS DK-1 3.9 20:50:23 10° N 20:53:17 25° NE 20:53:17 25° NE
Cosmos 1741 Rocket 4.4 20:54:59 47° ENE 20:54:59 47° ENE 20:59:15 10° NNE
FALCON 9 DEB 4.2 20:50:56 10° WSW 20:53:39 44° WNW 20:53:39 44° WNW
SL-4 R/B 3.2 20:55:01 10° WNW 20:58:05 30° N 20:58:16 30° N
Cosmos 1076 Rocket 3.5 20:55:03 10° N 20:59:02 77° N 20:59:02 77° N
In-Cosmos 22 Rocket 4.2 20:55:01 10° NNW 21:00:54 84° W 21:02:23 53° S
STARLINK-1246 4.1 20:56:47 10° NW 21:00:32 55° N 21:00:32 55° N
STARLINK-1203 4.0 20:57:37 10° NW 21:01:25 59° N 21:01:25 59° N
STARLINK-1224 4.2 21:01:45 10° NW 21:05:18 54° NNW 21:05:18 54° NNW
Cosmos 1833 Rocket 4.5 21:13:43 18° NE 21:13:43 18° NE 21:15:24 10° NE
Cosmos 1763 Rocket 3.4 21:05:27 10° NNW 21:10:29 70° NE 21:10:29 70° NE
STARLINK-1225 4.3 21:06:45 10° NW 21:10:06 52° NNW 21:10:06 52° NNW
STARLINK-1230 4.5 21:11:43 10° NW 21:14:53 49° NW 21:14:53 49° NW
BREEZE M DEB (TANK) 3.4 21:12:24 10° WSW 21:16:10 86° NNW 21:28:39 10° ENE
COSMOS 2406 3.6 21:21:00 50° NE 21:21:00 50° NE 21:25:18 10° NNE
Cosmos 540 Rocket 4.2 21:15:05 10° N 21:19:20 41° NE 21:19:20 41° NE
Cosmos 1821 Rocket 4.2 21:14:16 10° N 21:20:33 55° ENE 21:20:35 55° ENE
Cosmos 1174 4.5 21:16:41 10° NW 21:20:14 64° NW 21:20:14 64° NW
Meteor 2-10 Rocket 4.0 21:23:20 49° NE 21:23:20 49° NE 21:27:26 10° NNE
SL-08 R/B 4.3 21:18:14 10° N 21:24:25 88° W 21:25:05 73° S
Iridium 4 Rocket 3.9 21:21:18 10° NNW 21:24:45 46° NW 21:24:45 46° NW
USA 234 3.2 21:20:28 10° NE 21:27:02 86° NW 21:33:35 10° SW
USA 32 4.1 21:26:36 10° N 21:31:15 71° N 21:31:15 71° N
Cosmos 1850 Rocket 4.3 21:39:34 62° NW 21:39:34 62° NW 21:44:32 10° NNE
CZ-4C R/B 3.5 21:33:43 10° NNW 21:40:27 46° NE 21:42:00 41° ENE
Cosmos 2369 4.1 21:35:11 10° NNW 21:40:06 55° NNE 21:40:06 55° NNE
Cosmos 1697 Rocket 3.0 21:40:55 10° NNW 21:45:47 59° NNE 21:45:47 59° NNE
COSMOS 2455 4.4 21:42:31 10° NW 21:47:18 25° WSW 21:48:21 24° WSW
Resurs 01 Rocket 4.3 21:46:03 11° WSW 21:47:32 13° W 21:49:32 10° WNW
Cosmos 841 Rocket 4.0 21:42:42 10° NNW 21:46:53 56° N 21:46:53 56° N
Mayak 1.4 21:47:19 10° NNE 21:47:47 13° NNE 21:47:47 13° NNE
ATLAS CENTAUR R/B 3.7 21:51:34 10° NNW 21:52:56 20° NNW 21:52:56 20° NNW
SL-16 R/B 4.0 22:00:12 10° N 22:04:13 20° NE 22:04:13 20° NE
ERS-1 Rocket 4.2 22:07:19 36° WNW 22:07:19 36° WNW 22:11:09 10° NNW
Meteor 2-3 Rocket 4.4 22:06:42 10° N 22:11:01 52° N 22:11:01 52° N
Cosmos 2322 Rocket 4.1 22:08:43 10° N 22:12:34 20° NE 22:12:34 20° NE
Cosmos 1980 Rocket 3.0 22:10:16 10° NNW 22:14:19 46° N 22:14:19 46° N
Terra 3.5 22:21:20 31° NW 22:21:20 31° NW 22:24:08 10° NNW
Cosmos 2082 Rocket 3.6 22:45:47 33° NNE 22:45:47 33° NNE 22:48:50 10° NNE
Cosmos 1833 Rocket 4.0 22:55:21 37° NNW 22:55:21 37° NNW 22:59:32 10° NNE
Cosmos 2344 4.3 22:46:57 10° NW 22:56:41 88° NE 22:58:33 70° SE
USA 234 4.4 23:03:38 10° NE 23:09:37 40° NNW 23:15:36 10° W
Mayak 1.8 23:23:48 10° NNW 23:24:21 12° NNW 23:24:21 12° NNW
CZ-4C R/B 3.7 23:22:11 10° NW 23:27:10 43° WNW 23:27:10 43° WNW
SL-16 R/B 3.9 23:43:29 10° NNW 23:46:05 28° NNW 23:46:05 28° NNW
Cosmos 2360 Rocket 3.8 23:47:11 10° NNW 23:50:15 31° N 23:50:15 31° N
